Probability
36 34 29 24 21 19 15 12 12 13 14 14 12 9 6 5 10 16 19 19 15 12 9 8 7 8 8 6 5 5 5 5 4 3 1 0 0 0 0 0 0 0 0
37 36 31 26 24 22 17 14 14 13 13 14 13 11 8 8 10 15 17 17 14 11 9 7 7 8 8 7 6 7 8 7 6 4 1 0 0 0 0 0 0 0 0
37 37 35 32 29 26 22 19 18 16 15 14 14 12 11 11 12 13 15 14 12 11 10 8 8 9 9 7 6 7 8 8 7 5 2 0 0 0 0 0 0 0 0
35 36 38 39 36 32 29 25 23 21 17 15 14 14 14 14 14 14 14 13 12 12 12 11 10 10 8 7 6 5 5 5 6 5 2 0 0 0 0 0 0 0 0
34 36 40 42 40 38 35 32 29 26 22 18 17 16 16 16 16 14 14 13 13 13 12 12 11 9 7 6 5 4 3 3 3 3 1 0 0 0 0 0 0 0 0
34 36 40 42 41 40 39 37 36 32 28 25 23 22 19 15 13 11 11 12 12 12 11 10 9 8 7 5 4 2 2 2 1 1 0 0 0 0 0 0 0 0 0
32 34 37 39 40 40 39 39 38 35 31 29 28 25 20 13 8 6 6 8 9 10 11 10 8 8 8 7 4 3 2 1 1 1 1 1 1 0 0 0 0 0 0
30 32 34 36 38 38 36 35 35 34 30 29 28 25 19 12 7 4 3 4 6 9 11 10 9 10 9 8 6 4 3 1 0 1 1 2 1 0 0 0 0 0 0
28 28 29 31 31 29 29 29 30 30 29 28 28 24 20 14 7 3 2 3 5 8 9 9 9 9 8 6 5 5 4 1 0 0 1 1 1 0 0 0 0 0 0
23 22 23 24 22 21 22 24 25 25 25 26 25 22 20 15 8 3 2 5 7 7 8 7 6 6 5 3 3 4 3 1 0 0 0 0 0 0 0 0 0 0 0
17 16 14 14 15 16 17 19 20 20 20 21 20 18 17 14 9 4 3 5 8 8 7 6 5 4 2 1 1 2 2 1 1 0 0 0 0 0 0 0 0 0 0
13 11 9 9 10 12 13 14 15 16 17 18 18 15 13 11 8 5 2 3 6 7 6 6 6 4 1 0 0 0 0 0 0 0 0 0 0 0 0 0 0 0 0
9 8 7 7 8 9 10 10 12 14 15 16 16 14 11 10 8 5 3 2 3 4 5 5 5 3 1 0 0 0 0 0 0 0 0 0 0 0 0 0 0 0 0
6 7 7 7 7 8 8 8 9 12 13 13 14 13 12 10 9 7 5 3 3 3 4 4 2 1 1 1 1 0 0 0 0 0 0 0 0 0 0 0 0 0 0
5 6 6 6 7 7 7 7 8 9 9 9 11 13 11 9 9 8 6 5 5 4 4 3 2 1 1 2 2 1 0 0 0 0 0 0 0 0 0 0 0 0 0
5 6 6 6 6 5 6 6 6 6 5 5 7 9 8 7 6 5 4 4 4 4 3 3 3 3 2 3 3 2 1 0 0 0 0 0 0 0 0 0 0 0 0
5 6 7 6 5 3 4 6 6 4 4 3 2 3 4 3 2 1 1 1 2 2 3 3 3 3 3 3 3 3 2 1 0 0 0 0 0 0 0 0 0 0 0
4 4 5 6 5 4 4 6 6 5 4 2 1 0 1 1 0 0 0 0 1 2 3 3 3 3 3 3 3 3 3 1 0 0 0 0 0 0 0 0 0 0 0
2 2 3 4 5 4 5 6 6 5 4 3 1 0 1 1 0 0 0 1 2 3 3 3 3 3 3 3 3 3 3 2 1 0 0 0 0 0 0 0 0 0 0
1 0 1 3 4 4 5 6 6 4 3 3 1 1 1 1 1 1 0 1 2 3 3 3 3 3 3 3 3 3 3 3 1 0 0 0 0 0 0 0 0 0 0
0 0 1 2 3 3 4 6 6 5 4 3 2 1 1 1 2 2 1 1 3 3 3 3 3 3 3 3 3 3 3 3 2 1 0 0 0 0 0 0 0 0 0
0 0 1 2 3 4 5 6 6 6 5 4 3 1 0 0 1 2 2 3 3 3 3 3 3 3 3 3 3 3 3 3 3 1 0 0 0 0 0 0 0 0 0
0 0 1 3 4 5 6 6 6 6 6 4 3 2 1 0 0 1 2 3 3 3 3 3 3 3 3 3 3 3 3 3 3 2 0 0 0 0 0 0 0 0 0
0 1 3 5 6 6 6 6 6 6 6 4 3 3 2 1 0 0 1 2 2 2 2 2 3 3 3 3 3 3 3 2 2 1 0 0 0 0 0 0 0 0 0
1 2 4 6 6 6 6 6 6 6 5 4 3 3 2 1 0 0 0 1 1 1 1 1 1 2 2 2 2 2 1 1 1 0 0 0 0 0 0 0 0 0 0
1 2 4 6 6 6 6 6 6 6 5 4 3 3 2 1 0 0 0 0 0 0 0 0 0 1 1 1 1 1 0 0 0 0 0 0 0 0 0 0 0 0 0
Wind_Speed
9 8 8 7 6 6 5 6 5 5 5 5 5 5 5 4 4 4 4 3 3 2 2 2 3 2 1 1 1 1 2 2 3 3 2 2 2 2 1 1 1 1 2
9 9 9 7 7 7 6 6 5 5 5 5 5 5 5 5 4 5 5 4 4 4 3 3 3 2 2 2 1 2 2 2 3 4 3 2 2 2 2 2 2 2 2
7 8 8 7 8 8 8 6 6 5 5 4 5 5 5 4 4 4 5 4 4 4 4 4 4 3 3 2 2 2 2 2 2 2 3 2 2 1 1 2 2 1 2
6 7 8 8 8 8 7 7 6 6 5 5 5 5 5 5 4 4 4 4 4 4 4 4 4 4 4 4 3 3 2 2 1 2 2 2 2 1 0 1 2 1 2
6 7 8 7 7 6 6 6 6 6 6 5 5 4 4 4 4 4 4 4 4 3 3 3 3 3 4 4 3 3 2 1 1 1 2 1 2 1 1 2 2 2 2
7 6 6 5 6 6 6 6 6 6 5 5 5 4 4 4 5 6 4 3 3 3 3 3 2 2 2 3 3 3 4 3 3 2 2 3 3 3 2 1 1 0 2
5 5 5 6 6 6 7 6 6 6 5 5 5 4 4 5 5 5 5 4 3 3 4 3 2 1 1 1 0 1 1 2 4 3 3 4 3 4 3 2 1 2 3
4 5 5 5 5 4 4 5 5 5 5 5 5 4 4 4 5 4 4 3 3 3 3 4 4 2 2 2 2 1 1 1 2 2 3 3 3 3 3 3 3 2 2
3 3 4 5 5 4 4 3 3 4 4 4 4 5 4 4 4 5 4 2 2 2 2 2 3 3 4 4 3 2 0 2 2 0 1 2 3 3 2 2 1 1 1
2 2 2 3 4 4 4 3 3 3 4 4 4 4 4 4 4 4 5 2 2 1 1 1 2 3 4 5 4 3 2 2 1 1 2 2 1 1 2 3 3 2 1
2 2 2 2 3 3 3 2 2 2 3 3 3 3 3 3 4 4 5 3 3 2 1 1 1 2 3 4 3 3 4 2 1 1 1 1 1 1 1 1 2 3 2
3 3 2 2 2 2 3 3 3 3 4 3 3 2 1 2 3 3 5 4 4 3 2 1 1 2 3 2 2 2 2 2 1 1 0 1 1 1 2 1 1 2 2
2 2 2 2 2 2 3 3 2 3 3 3 3 3 2 1 2 4 4 3 3 2 2 2 2 3 3 1 1 2 2 1 1 1 1 2 2 2 1 1 1 1 2
2 2 2 2 1 1 2 2 3 3 3 3 3 3 2 1 1 2 2 2 2 2 1 2 3 3 2 2 1 1 1 1 1 1 1 1 1 1 1 0 1 1 2
2 2 2 2 2 2 2 1 2 2 4 5 4 4 4 3 3 4 3 3 3 2 3 2 2 2 1 1 1 1 1 1 0 0 0 0 1 1 1 1 0 1 0
2 1 1 2 2 2 2 2 3 2 2 3 4 5 3 4 5 5 4 4 5 6 5 2 1 1 1 1 1 0 0 0 1 1 0 0 0 0 1 1 1 0 1
2 2 1 2 2 2 2 3 2 2 4 2 2 4 4 5 5 6 5 5 5 7 4 2 2 2 2 2 1 1 1 1 1 0 0 1 0 0 0 1 1 1 1
2 2 2 2 2 2 2 2 3 3 1 1 1 1 4 4 5 5 6 6 3 2 2 3 2 2 2 2 2 2 1 1 0 1 1 1 0 0 0 1 0 0 1
1 1 2 2 2 2 2 2 2 3 2 1 0 1 2 3 3 4 5 3 4 3 2 2 3 2 2 2 2 2 2 1 1 1 1 1 0 0 0 0 0 1 0
1 2 2 2 2 2 2 3 3 3 2 2 2 2 2 3 2 1 2 2 3 3 3 3 3 3 2 2 2 2 1 1 1 1 1 1 1 1 1 1 1 0 1
1 1 3 2 2 2 3 3 3 3 3 3 2 3 5 3 3 3 3 3 3 4 3 3 2 2 2 2 2 2 2 1 1 1 1 1 1 1 1 1 1 1 1
1 1 1 2 2 2 2 3 3 3 3 3 2 2 4 3 3 3 3 3 3 3 3 3 3 2 3 3 3 3 2 2 2 1 1 1 1 1 1 1 1 1 1
2 2 1 2 2 3 3 2 3 3 3 3 3 2 3 3 3 3 3 3 3 3 3 3 3 2 2 2 3 3 3 3 3 3 3 2 2 1 1 1 1 1 1
2 2 2 2 3 3 3 3 3 3 3 3 3 3 3 3 3 3 3 3 3 3 3 3 3 4 5 3 2 2 3 3 3 3 4 3 2 2 1 1 2 2 2
2 2 2 2 3 3 3 3 3 3 3 3 3 3 3 3 3 2 2 2 3 3 3 3 2 3 4 4 4 3 3 4 3 2 2 2 2 2 2 2 2 2 2
1 1 2 2 2 3 3 3 3 3 3 3 3 3 3 2 2 2 2 2 3 3 3 2 3 3 3 3 3 3 3 3 3 2 2 2 2 2 2 2 2 2 2
Wind_Direction
193 194 196 195 199 198 201 202 198 194 189 188 189 190 196 200 195 190 200 199 203 222 224 203 223 218 211 224 208 202 209 194 235 271 264 258 244 256 284 244 246 245 247
193 193 198 197 197 200 207 201 193 197 196 193 189 191 197 195 191 192 202 202 201 210 218 214 233 227 222 222 205 215 222 209 204 250 272 269 247 240 253 251 243 234 239
188 192 197 197 198 202 205 202 197 197 199 196 190 193 196 196 195 199 200 203 208 213 212 212 226 212 224 225 215 222 229 229 203 215 258 262 263 265 277 285 266 267 253
188 196 200 201 203 204 202 199 197 194 195 196 195 199 197 196 198 200 199 206 214 219 218 213 215 210 215 216 220 222 222 227 226 221 248 266 272 280 233 276 298 292 281
186 196 205 207 201 197 200 200 196 196 201 195 191 198 202 200 204 199 202 204 209 217 227 226 224 219 219 215 215 218 209 213 227 226 240 255 261 267 247 238 251 275 282
188 196 198 195 190 191 197 198 194 198 199 190 193 196 204 220 210 198 190 201 207 210 219 231 233 226 224 218 216 213 196 195 213 221 229 227 240 235 231 226 214 248 278
190 191 190 189 188 195 200 196 199 200 195 192 196 196 208 218 194 193 198 198 204 211 212 212 223 224 198 139 106 61 240 223 207 200 212 225 221 219 199 215 229 226 238
193 196 198 191 189 195 197 202 208 199 190 188 190 192 195 207 191 196 200 207 212 218 217 209 199 208 204 159 142 115 286 283 254 220 207 218 215 208 196 201 210 225 269
188 194 190 183 182 180 188 203 209 191 185 183 186 190 191 212 198 192 188 199 208 217 212 206 194 198 200 170 151 160 316 324 333 279 219 222 219 212 189 143 141 124 291
183 180 173 174 177 180 188 191 198 189 188 179 186 194 191 205 197 187 181 186 194 215 225 231 215 201 196 182 173 171 190 251 306 9 2 348 324 248 204 177 178 176 205
156 140 140 163 170 171 178 176 179 178 163 158 166 191 199 205 186 182 179 185 185 183 196 237 256 208 193 191 184 187 206 198 152 115 22 352 352 342 299 216 194 182 186
143 145 155 153 157 157 166 167 161 164 157 162 158 183 214 210 184 177 170 172 168 161 182 210 239 193 173 173 164 156 159 129 122 100 39 314 295 284 288 283 245 226 217
132 144 153 138 139 169 172 177 171 174 170 170 170 181 204 215 184 156 149 149 144 156 172 172 149 137 124 124 117 118 120 108 111 136 231 258 255 253 297 329 327 320 314
141 145 138 136 132 140 154 169 174 177 172 174 174 180 185 185 192 168 159 153 131 117 109 94 94 96 97 102 84 69 83 124 152 189 239 273 312 0 4 350 339 346 334
130 136 133 140 146 126 110 115 167 181 182 180 184 178 174 191 212 182 169 169 166 159 124 85 77 77 78 61 56 39 41 58 69 324 275 334 344 2 344 350 37 69 40
134 141 142 147 146 139 132 90 55 89 127 166 178 177 190 195 180 170 167 163 152 143 127 131 143 150 160 172 171 207 305 254 250 244 240 193 273 294 322 342 13 63 263
151 168 162 158 160 163 158 144 119 42 48 64 153 174 179 182 174 171 169 157 151 144 134 159 172 183 188 186 188 199 231 250 236 222 239 237 231 245 307 319 329 336 302
146 162 165 173 176 175 174 169 162 161 158 343 344 159 163 167 167 161 150 129 124 148 158 173 186 191 188 189 199 210 223 229 215 236 254 267 236 201 302 300 293 279 291
148 177 169 171 178 180 175 167 164 166 167 173 96 50 127 130 125 135 141 140 160 177 185 189 194 190 189 195 204 205 201 209 215 216 239 248 239 197 232 259 279 309 324
149 165 162 162 167 167 167 166 171 170 172 177 181 177 138 110 118 143 168 172 172 182 188 194 198 189 182 183 187 185 184 194 199 193 228 251 241 204 214 228 230 269 267
161 170 163 152 161 170 173 174 175 174 176 177 188 185 165 164 180 186 191 194 194 198 198 193 193 189 182 177 174 168 169 188 193 194 203 229 231 236 242 228 238 244 268
168 180 175 167 166 169 173 176 172 172 178 178 177 178 180 178 183 192 200 204 205 203 192 180 185 191 187 183 178 174 179 193 207 206 211 223 227 236 243 251 263 263 271
168 179 176 176 175 173 172 177 180 180 182 184 182 180 186 197 204 206 208 206 194 191 184 174 176 185 193 190 183 179 188 207 214 207 206 218 227 229 229 240 248 250 259
189 194 185 183 186 180 181 190 193 190 188 191 196 194 196 200 205 210 209 201 192 189 183 181 184 188 190 189 191 197 207 216 211 207 203 207 216 227 232 238 247 252 251
189 200 200 197 193 189 191 200 200 195 191 194 198 197 199 196 198 199 191 177 169 171 179 183 188 192 192 190 192 204 216 213 208 200 196 196 208 219 225 234 247 260 255
187 197 203 194 191 191 192 198 196 192 187 183 189 189 186 184 185 181 172 163 169 175 178 179 171 171 178 190 195 196 199 201 201 190 178 182 196 223 229 236 251 249 247